{"data":{"norad_id":57817,"intl_designator":"2023-138K","name":"STARLINK-30391","alt_names":[],"object_type":"PAYLOAD","status":"ACTIVE","operator":null,"country":"US","launch_date":"2023-09-09","launch_site_code":"AFETR","launch_vehicle":null,"mission":null,"orbit_class":"UNKNOWN","rcs_meters":null,"size_class":null,"mass_kg":null,"dimensions":null,"purposes":["comms"],"wikipedia_slug":null,"has_3d_model":false,"image_url":null,"decayed_at":null,"tle_current":{"epoch":"2026-05-24T11:08:58.200000Z","epoch_age_seconds":122137,"freshness":"FRESH","line1":"1 57817U 23138K   26144.46456250 -.00002371  00000+0 -76599-4 0  9998","line2":"2 57817  43.0006 166.5413 0001806 276.6814  83.3832 15.27600766150326","mean_motion":15.27600766,"eccentricity":0.0001806,"inclination_deg":43.0006,"raan_deg":166.5413,"arg_perigee_deg":276.6814,"mean_anomaly_deg":83.3832,"bstar":-7.6599e-5,"rev_number":15032,"period_min":94.265467264108,"perigee_km":481.74779689032,"apogee_km":484.22603484873,"semimajor_km":6861.1239158695,"source":"CELESTRAK","updated_at":"2026-05-25T13:38:18.410257Z"}}}